DW8353 Weather Reports


time (UTC)temp
C
wind
direction
speed
KPH
gust
KPH
rain 1hr
cm
rain 24hr
cm
rain mn
cm
humidity
%
barometer
mb
20260510204554 15 311 0.0 6.4 0.03 0.03 0.03 83 1011.7
20260510203054 16 257 0.0 11.3 0.03 0.03 0.03 79 1012.0
20260510201554 16 262 3.2 11.3 0.03 0.03 0.03 73 1011.7
20260510200053 16 271 6.4 25.7 0.03 0.03 0.03 71 1011.5
20260510194552 18 205 8.0 20.9 0.00 0.00 0.00 64 1011.4
20260510193053 19 213 4.8 22.5 0.00 0.00 0.00 62 1011.4
20260510191550 20 232 3.2 16.1 0.00 0.00 0.00 65 1011.2
20260510190053 21 292 4.8 19.3 0.00 0.00 0.00 64 1011.4
20260510184611 19 338 0.0 16.1 0.00 0.00 0.00 65 1011.4
20260510183045 20 300 0.0 14.5 0.00 0.00 0.00 68 1011.5
20260510181556 20 240 1.6 16.1 0.00 0.00 0.00 68 1011.7
20260510180057 20 259 4.8 19.3 0.00 0.00 0.00 68 1011.6
20260510174542 20 256 1.6 16.1 0.00 0.00 0.00 70 1011.7
20260510173040 18 321 0.0 14.5 0.00 0.00 0.00 71 1011.4
20260510171556 19 268 0.0 14.5 0.00 0.00 0.00 72 1011.6
20260510170039 18 250 1.6 4.8 0.00 0.00 0.00 75 1011.8
20260510164536 19 321 0.0 11.3 0.00 0.00 0.00 80 1011.7
20260510163036 17 296 0.0 8.0 0.00 0.00 0.00 76 1012.1
20260510161536 18 298 3.2 11.3 0.00 0.00 0.00 73 1012.0
20260510160041 18 294 1.6 9.7 0.00 0.00 0.00 76 1012.0
20260510154547 18 302 0.0 6.4 0.00 0.00 0.00 79 1012.2
20260510153042 17 218 1.6 12.9 0.00 0.00 0.00 84 1012.4
20260510151527 17 213 0.0 6.4 0.00 0.00 0.00 82 1012.4
20260510150026 17 217 0.0 11.3 0.00 0.00 0.00 86 1012.4
20260510144542 16 246 0.0 9.7 0.00 0.00 0.00 88 1012.2
20260510143017 15 195 1.6 9.7 0.00 0.00 0.00 89 1012.3
20260510141513 14 163 0.0 4.8 0.00 0.00 0.00 93 1012.3
20260510140012 13 284 1.6 4.8 0.00 0.00 0.00 95 1012.3
20260510134507 12 232 0.0 4.8 0.00 0.00 0.00 97 1012.3
20260510133005 12 148 0.0 9.7 0.00 0.00 0.00 98 1012.2
20260510131506 11 218 0.0 0.0 0.00 0.00 0.00 98 1012.3
20260510130100 11 246 0.0 4.8 0.00 0.00 0.00 98 1012.4
20260510124559 11 236 0.0 1.6 0.00 0.00 0.00 98 1012.1
20260510123057 11 263 0.0 0.0 0.00 0.00 0.00 99 1012.0
20260510121557 11 263 0.0 0.0 0.00 0.00 0.00 99 1012.0
20260510120053 10 263 0.0 0.0 0.00 0.00 0.00 99 1012.0
20260510114552 10 263 0.0 0.0 0.00 0.00 0.00 99 1011.9
20260510113048 9 263 0.0 0.0 0.00 0.00 0.00 99 1011.8
20260510111548 9 259 0.0 0.0 0.00 0.00 0.00 99 1011.6
20260510110051 9 282 0.0 4.8 0.00 0.00 0.00 99 1011.7
20260510104553 9 291 0.0 0.0 0.00 0.00 0.00 99 1011.5
20260510103039 9 227 0.0 0.0 0.00 0.00 0.00 99 1011.4
20260510101545 9 228 0.0 4.8 0.00 0.00 0.00 99 1011.2
20260510100036 9 215 0.0 0.0 0.00 0.00 0.00 99 1011.2
20260510094534 9 215 0.0 6.4 0.00 0.00 0.00 99 1010.8
20260510093033 9 227 0.0 0.0 0.00 0.00 0.00 99 1011.2
20260510091536 9 257 0.0 1.6 0.00 0.00 0.00 99 1011.1
20260510090032 9 249 0.0 0.0 0.00 0.00 0.00 99 1011.0
20260510084544 9 258 0.0 0.0 0.00 0.00 0.00 99 1011.2
20260510083033 9 277 0.0 6.4 0.00 0.00 0.00 99 1011.4
20260510081534 8 288 0.0 6.4 0.00 0.00 0.00 99 1011.2
20260510080034 9 272 0.0 8.0 0.00 0.00 0.00 99 1011.3
20260510074527 9 288 0.0 0.0 0.00 0.00 0.00 99 1011.4
20260510073044 9 250 0.0 0.0 0.00 0.00 0.00 99 1011.1
20260510071526 9 257 0.0 0.0 0.00 0.00 0.00 99 1011.0
20260510070026 9 263 0.0 3.2 0.00 0.00 0.00 99 1011.0
20260510064524 9 267 0.0 8.0 0.00 0.00 0.00 99 1011.1
20260510063023 9 254 0.0 1.6 0.00 0.00 0.00 99 1011.1
20260510061523 9 213 0.0 0.0 0.00 0.00 0.00 99 1010.9
20260510060034 9 212 0.0 0.0 0.00 0.00 0.00 99 1010.7
20260510054520 9 265 0.0 0.0 0.00 0.00 0.00 99 1010.9
20260510053019 9 265 0.0 0.0 0.00 0.00 0.00 99 1011.0
20260510051519 9 232 0.0 0.0 0.00 0.00 0.00 98 1010.9
20260510050018 10 232 0.0 0.0 0.00 0.00 0.00 98 1011.0
20260510044518 10 232 0.0 0.0 0.00 0.00 0.00 98 1010.8
20260510043016 10 232 0.0 0.0 0.00 0.00 0.00 98 1010.9
20260510041515 10 232 0.0 0.0 0.00 0.00 0.00 98 1010.8
20260510040014 10 232 0.0 0.0 0.00 0.00 0.00 98 1010.8
20260510034512 10 232 0.0 0.0 0.00 0.00 0.00 98 1010.9
20260510033012 10 252 0.0 0.0 0.00 0.00 0.00 98 1011.1
20260510031512 10 204 0.0 0.0 0.00 0.00 0.00 98 1011.0
20260510030011 10 192 0.0 0.0 0.00 0.00 0.00 98 1011.2
20260510024510 10 165 0.0 0.0 0.00 0.00 0.00 98 1011.0
20260510023010 10 165 0.0 0.0 0.00 0.00 0.00 98 1010.8
20260510021509 10 165 0.0 0.0 0.00 0.00 0.00 98 1010.9
20260510020009 10 165 0.0 6.4 0.00 0.00 0.00 98 1011.1
20260510014511 10 225 0.0 0.0 0.00 0.00 0.00 98 1011.2
20260510013008 10 225 0.0 0.0 0.00 0.00 0.00 98 1011.1
20260510011508 10 225 0.0 0.0 0.00 0.00 0.00 98 1011.0
20260510010007 10 223 0.0 0.0 0.00 0.00 0.00 98 1010.7
20260510004507 10 238 0.0 0.0 0.00 0.00 0.00 98 1010.6
20260510003006 10 245 0.0 0.0 0.00 0.00 0.00 98 1010.4
20260510001506 10 250 0.0 0.0 0.00 0.00 0.00 98 1010.5
20260510000005 10 171 0.0 4.8 0.00 0.00 0.00 98 1010.3
20260509234504 10 153 1.6 8.0 0.00 0.00 0.00 98 1010.2
20260509233003 10 159 4.8 12.9 0.00 0.00 0.00 98 1010.1
20260509231502 10 168 1.6 11.3 0.00 0.00 0.00 98 1010.3
20260509230100 10 162 0.0 4.8 0.00 0.00 0.00 98 1010.5
20260509224559 10 154 0.0 9.7 0.00 0.00 0.00 98 1010.6
20260509223058 10 160 0.0 6.4 0.00 0.00 0.00 97 1010.6
20260509221557 10 299 0.0 0.0 0.00 0.00 0.00 97 1010.9
20260509220057 10 244 0.0 3.2 0.00 0.00 0.00 97 1010.9
20260509214557 10 220 0.0 0.0 0.00 0.00 0.00 97 1011.1
20260509213055 10 229 0.0 6.4 0.00 0.00 0.00 97 1011.1
20260509211555 11 255 0.0 0.0 0.00 0.00 0.00 97 1010.9
20260509210105 10 254 0.0 0.0 0.00 0.00 0.00 97 1010.9